Regional Weather Roundup
Issued by NWS

Home | Current Version | Previous Version | Graphics & Text | Print | Product List | Glossary On
Versions: 1 2 3 4 5 6 7 8 9 10 11 12 13 14 15 16 17 18 19 20 21 22 23 24 25 26 27
000
ASUS45 KTFX 271010
RWRMT
MONTANA REGIONAL WEATHER ROUNDUP
NATIONAL WEATHER SERVICE GREAT FALLS MT
400 AM MDT WED JUL 27 2016

NOTE: "FAIR" INDICATES FEW OR NO CLOUDS BELOW 12000 FEET WITH NO
SIGNIFICANT WEATHER AND/OR OBSTRUCTIONS TO VISIBILITY.

MTZ001>007-043-271100-
WEST OF THE DIVIDE

CITY           SKY/WX    TMP DP  RH WIND       PRES   REMARKS
KALISPELL      CLEAR     55  51  86 N7        30.08R
MISSOULA       CLEAR     59  51  75 N3        30.11R
BUTTE          CLEAR     46  40  79 CALM      30.23S
MULLAN PASS    CLEAR     60  42  51 CALM      30.23S
ANACONDA         N/A     54  45  71 SE5       30.19S
DEER LODGE       N/A     52  46  82 CALM      30.21R
EUREKA           N/A     55  52  88 CALM      30.11R
HAMILTON         N/A     63  46  55 S7        30.11R
LIBBY            N/A     55  50  82 CALM      30.09S
RONAN            N/A     54  49  83 CALM      30.12S
$$

MTZ008-052>055-271100-
SOUTHWEST MONTANA

CITY           SKY/WX    TMP DP  RH WIND       PRES   REMARKS
DILLON         CLEAR     50  41  71 SE5       30.20S
W YELLOWSTONE  CLOUDY    43  37  81 CALM      30.31R
ENNIS          CLEAR     48  41  76 NE5       30.26S
THREE FORKS      N/A     50  45  83 CALM      30.15R
TWIN BRIDGES     N/A     50  40  68 SE2       30.17S
$$

MTZ009-010-012-014-046-048-049-054-271100-
EAST SLOPES AND CENTRAL MONTANA

CITY           SKY/WX    TMP DP  RH WIND       PRES   REMARKS
CUT BANK       PTCLDY    53  52  96 NW9       30.14F
GREAT FALLS    CLEAR     53  51  93 SW5       30.14F
MALMSTROM AFB  CLEAR     53  52  96 SE6       30.14R
HELENA         CLEAR     59  52  77 CALM      30.15R
CHOTEAU          N/A     54  52  94 SW3       30.16S
$$

MTZ011-013-016-021-045-047-050-051-271100-
NORTH CENTRAL MONTANA

CITY           SKY/WX    TMP DP  RH WIND       PRES   REMARKS
HAVRE          CLOUDY    58  57  97 SW7       30.09F
LEWISTOWN      CLOUDY    55  51  86 S3        30.16R
N BAR RANCH      N/A     55  52  88 NW5       30.18R
CHINOOK          N/A     61  59  94 SE3       30.10S
$$

MTZ017>020-022>027-061-062-271100-
NORTHEAST MONTANA

CITY           SKY/WX    TMP DP  RH WIND       PRES   REMARKS
GLASGOW        CLOUDY    61  60  97 S10       30.08R
JORDAN           N/A     63  60  90 SE7       30.07R
SIDNEY         CLOUDY    64  60  87 W12       30.14R
WOLF POINT     LGT RAIN  63  61  93 SE8       30.10F
PLENTYWOOD       N/A     61  55  82 CALM      30.14R
POPLAR           N/A     63  61  94 SE7       30.13S
SCOBEY           N/A     60  51  72 E2        30.10
$$

MTZ028>42-056>058-271100-
SOUTHCENTRAL AND SOUTHEAST MONTANA

CITY           SKY/WX    TMP DP  RH WIND       PRES   REMARKS
BAKER          PTCLDY    58  56  93 E3        30.13R
BILLINGS       CLOUDY    65  57  75 NE5       30.12R
LIVINGSTON     CLEAR     55  44  66 S8        30.18R
MILES CITY     MOCLDY    65  58  78 NE13      30.11S
EKALAKA          N/A     63  59  87 SE10      30.07F
FORSYTH          N/A     66  61  82 E9        30.08S
LAUREL           N/A     63  51  64 CALM      30.10S
ROUNDUP          N/A     61  55  80 CALM      30.03S
$$

REGIONAL REPORTS...DAKOTAS

CITY           SKY/WX    TMP DP  RH WIND       PRES   REMARKS
WILLISTON      CLOUDY    59  53  80 NW7       30.12R
MINOT          CLEAR     61  58  90 N6        30.09F
DICKINSON      CLOUDY    54  53  97 CALM      30.08S
CROSBY           N/A     54  54 100 CALM      30.15R
WATFORD CITY     N/A    N/A N/A N/A MISG        N/A
BISMARCK       CLEAR     62  60  93 N7        30.07S
GRAND FORKS    CLOUDY    64  60  87 N7        30.04R
FARGO          LGT RAIN  68  65  90 NW8       29.99F
BUFFALO SD       N/A     60  59  96 N5        30.06R
RAPID CITY     CLOUDY    62  60  93 NW13      30.09R
$$

REGIONAL REPORTS...WYOMING/IDAHO/WASHINGTON

CITY           SKY/WX    TMP DP  RH WIND       PRES   REMARKS
GILLETTE       CLOUDY    66  56  70 S18G29    30.12R
SHERIDAN       CLOUDY    66  50  56 S5        30.09R
BUFFALO WY     CLOUDY    64  50  60 W10       30.15R
CODY           PTCLDY    63  45  51 NE14      30.19R
YELLOWSTONE LA   N/A     47  38  71 CALM      30.38R
IDAHO FALLS    CLEAR     51  45  79 N7        30.14R
SALMON         CLEAR     50  45  81 CALM      30.15R
BOISE          CLEAR     70  51  51 S5        29.98R
SPOKANE        PTCLDY    67  53  61 NE9       30.03S
$$

REGIONAL REPORTS...ALBERTA

CITY           SKY/WX    TMP DP  RH WIND       PRES   REMARKS
EDMONTON       PTCLDY    54  52  94 S2        30.08S
CALGARY        PTCLDY    57  54  88 NE5       30.14S
LETHBRIDGE     CLEAR     54  54 100 SW5       30.12R
MEDICINE HAT   PTCLDY    59  59 100 CALM      30.10S
WATERTON GATE    N/A     52  50  93 SW8         N/A
CARDSTON         N/A     54  50  87 S1          N/A
MILK RIVER       N/A     55  54  94 W5          N/A
ONEFOUR          N/A     59  55  88 N6          N/A
$$

REGIONAL REPORTS...SASKATCHEWAN

CITY           SKY/WX    TMP DP  RH WIND       PRES   REMARKS
SWIFT CURRENT  CLEAR     55  54  94 E9        30.12R
REGINA         CLEAR     57  50  77 E5        30.15R
SASKATOON      PTCLDY    59  54  82 SE3       30.16R
CYPRESS HILLS    N/A     55  52  88 SE5         N/A
VAL MARIE        N/A     61  57  88 NE3         N/A
ROCKGLEN         N/A     57  54  88 E1          N/A
ASSINIBOIA       N/A     57  55  94 SE2         N/A
$$




USA.gov is the U.S. government's official web portal to all federal, state and local government web resources and services.